Wind_Speed
15 16 15 14 14 14 12 12 11 10 11 11 11 11 10 11 11 11 11 10 11 10 10 10 9 9 8 8 8 9 9 9 10 10 10 10 10 10 10 11 10 10 10
15 15 14 14 14 14 13 13 12 11 10 10 11 11 12 12 12 12 11 11 11 10 10 11 10 9 9 9 9 9 9 9 10 10 11 11 11 11 11 11 11 11 11
16 15 14 15 15 14 13 14 13 12 11 11 12 12 13 13 13 12 12 12 11 11 10 11 11 10 10 10 10 10 10 11 11 11 11 11 11 11 11 12 12 12 12
18 17 16 17 15 14 15 15 12 13 11 10 11 12 13 13 13 13 13 12 12 12 12 11 11 11 11 11 11 11 12 12 12 12 12 12 12 12 12 13 13 14 14
18 16 16 16 16 15 14 14 13 13 12 12 12 13 13 13 13 13 13 13 13 12 12 13 13 12 12 12 12 13 13 14 14 13 13 13 13 13 13 13 14 14 15
18 18 18 17 18 17 16 16 15 16 15 13 14 13 14 14 14 14 14 13 13 13 13 13 14 13 13 14 14 14 15 15 14 14 14 15 15 14 14 14 15 15 15
19 19 20 20 21 20 18 17 17 17 16 16 16 15 15 15 15 15 14 14 14 14 14 15 15 14 15 15 15 15 16 16 15 15 15 15 15 15 16 16 16 16 17
21 21 22 22 22 21 20 20 19 19 18 18 18 17 17 16 16 15 15 15 15 15 16 16 16 16 16 16 16 16 16 16 16 16 16 16 17 17 17 17 17 18 18
22 23 24 24 24 23 22 21 20 19 19 19 19 18 18 17 16 16 16 16 16 16 16 16 16 16 17 17 17 18 17 17 17 17 17 17 18 18 18 19 19 19 19
24 24 24 24 24 24 24 23 21 21 21 21 20 20 19 17 17 17 17 18 18 18 17 17 17 17 19 19 18 18 18 18 18 18 19 19 18 19 19 19 20 20 21
24 25 24 24 25 25 24 22 22 22 22 22 21 20 20 19 19 18 18 18 19 19 19 18 18 18 19 20 20 19 19 19 19 20 20 20 20 19 20 19 20 20 21
25 25 26 26 25 24 24 23 23 23 23 23 22 22 22 21 20 20 20 20 20 20 21 20 20 20 20 20 20 20 20 20 20 20 20 20 20 21 21 20 20 21 21
25 26 26 26 26 25 24 24 24 24 23 23 23 23 23 23 21 21 21 21 21 22 22 22 22 21 21 21 21 21 21 21 21 21 21 21 21 21 21 21 20 21 21
27 26 27 27 27 26 26 26 25 25 25 24 24 24 24 24 23 23 23 23 23 23 23 23 23 23 23 23 23 23 23 22 22 22 22 22 21 21 21 21 21 21 22
27 26 26 27 27 27 27 26 26 27 26 26 26 26 25 24 24 24 25 25 25 25 25 25 24 25 25 25 24 24 24 24 23 23 23 22 22 22 21 21 22 23 23
27 27 27 27 28 28 28 27 28 28 27 27 27 27 27 26 25 25 25 26 26 26 25 25 25 24 25 25 25 25 25 25 24 24 24 24 23 23 23 23 23 23 24
28 28 28 28 29 29 29 29 27 26 27 27 28 28 27 27 26 26 26 26 27 27 26 26 25 25 25 26 26 27 26 25 24 24 24 24 24 24 24 25 25 25 25
29 29 29 29 29 29 29 28 27 27 27 27 27 28 29 28 27 27 27 27 27 26 26 26 25 25 25 25 25 26 26 25 26 26 26 25 25 26 26 26 26 26 26
30 29 30 29 29 29 28 27 27 26 26 26 27 28 29 29 28 28 27 27 27 27 26 26 25 25 26 26 26 26 26 26 27 27 27 26 26 27 27 27 27 27 27
29 29 29 28 28 27 27 26 25 25 25 26 26 27 28 29 29 28 27 27 26 26 26 26 25 25 26 26 27 27 26 26 27 27 27 27 27 27 28 28 28 27 27
29 30 28 28 28 27 27 26 25 25 26 26 26 27 27 28 28 28 27 27 26 26 26 26 25 25 25 25 26 26 26 27 27 27 27 27 27 27 27 27 27 26 27
29 29 28 28 28 27 27 26 26 26 27 27 27 27 27 27 27 27 27 27 26 27 27 26 26 25 26 25 25 26 27 27 27 27 27 27 27 27 27 26 26 26 26
29 28 28 28 28 27 27 27 26 27 27 27 27 27 26 26 26 26 26 26 26 27 26 26 26 25 26 26 25 26 26 27 27 27 27 27 27 26 27 26 26 26 26
27 27 27 27 28 27 27 27 27 27 27 27 26 26 26 26 25 25 25 25 25 26 25 25 25 25 25 25 25 26 26 26 26 26 26 27 27 26 26 27 27 27 26
26 26 27 27 27 26 26 27 27 27 26 27 26 26 26 25 25 25 25 25 24 24 24 24 24 25 25 24 25 25 25 25 25 25 26 26 26 26 27 27 27 27 27
27 27 27 28 28 28 28 27 26 26 26 26 26 26 26 25 25 25 24 24 24 24 24 23 23 24 24 24 24 24 24 25 25 25 25 25 26 26 27 27 27 27 27
Wind_Direction
278 280 285 290 289 289 287 288 293 298 299 301 304 305 304 307 308 307 307 300 292 285 277 275 273 268 265 266 267 265 269 270 274 275 276 275 276 273 270 269 267 270 270
275 278 282 286 290 292 292 294 292 291 290 293 296 297 299 303 306 306 302 300 297 287 275 275 275 271 266 267 270 270 274 273 277 278 275 276 279 275 268 268 267 271 272
272 276 282 285 287 291 292 295 287 283 288 289 290 292 294 298 299 300 296 294 295 287 277 272 274 272 268 266 271 275 275 278 278 280 281 277 275 273 268 266 268 271 271
267 268 275 283 286 289 287 290 286 288 288 289 292 294 293 292 295 295 293 290 290 285 275 272 271 272 269 266 268 275 280 282 280 281 282 281 276 271 269 269 268 268 269
269 272 279 281 285 284 283 284 281 288 289 290 293 294 293 295 294 291 288 286 284 280 274 271 271 274 270 270 274 277 279 281 279 279 280 281 275 272 270 269 270 269 269
270 275 279 278 283 281 280 280 280 283 284 288 292 291 290 294 295 290 285 282 281 276 273 271 269 270 271 272 275 278 278 279 277 275 276 278 276 271 271 271 271 271 271
271 276 277 278 281 280 278 278 280 282 284 286 289 286 287 288 289 286 283 282 280 278 276 274 270 271 273 273 275 277 279 279 275 275 275 275 274 273 273 272 271 271 272
268 272 273 274 277 277 277 278 279 281 283 284 285 285 284 284 283 282 282 279 277 276 276 276 272 270 272 274 276 277 276 275 274 274 275 274 273 273 272 272 272 273 273
263 267 270 272 273 273 275 277 278 280 282 284 284 284 282 280 281 282 282 277 275 276 277 278 275 271 272 275 277 277 274 272 273 274 275 275 275 274 273 273 272 272 273
262 264 269 273 274 272 274 273 277 278 279 281 282 282 284 282 279 279 279 278 277 276 277 276 276 275 275 275 276 276 272 271 273 275 274 274 274 275 275 274 273 273 274
259 263 267 268 270 272 273 275 276 277 277 279 280 281 282 282 279 276 277 277 277 276 276 274 273 274 275 275 274 273 272 272 273 274 274 273 273 275 275 273 273 273 274
260 263 265 267 269 271 274 273 273 275 276 277 278 278 279 280 278 274 275 277 277 277 276 274 272 272 273 274 272 271 272 273 274 275 275 274 273 274 275 273 273 273 273
261 262 264 267 271 272 275 272 271 273 274 275 276 276 278 279 276 275 275 276 278 279 277 276 274 273 273 273 271 270 272 272 272 273 275 275 273 272 274 274 274 274 274
263 263 264 268 272 274 276 273 270 272 274 275 275 275 277 276 274 274 275 276 277 278 279 277 273 272 272 272 270 269 270 271 271 272 273 273 272 271 272 274 274 275 276
266 268 270 271 272 275 277 275 272 271 274 274 273 274 274 274 274 273 274 275 276 276 276 276 275 272 272 272 270 268 268 268 269 271 271 271 271 270 271 273 275 277 277
267 269 271 272 274 277 278 277 274 272 273 273 273 273 273 273 273 272 272 273 274 275 275 276 277 274 272 271 268 267 267 267 268 269 270 270 271 272 273 274 275 277 278
267 268 269 271 273 275 277 275 274 274 273 273 273 272 273 271 271 272 273 273 274 275 275 274 276 274 273 271 267 266 268 268 267 267 267 268 269 271 274 275 276 278 279
266 266 267 270 273 275 275 272 272 275 274 273 273 272 272 273 271 272 273 274 273 273 273 274 273 272 272 272 270 267 267 267 266 266 265 266 268 269 273 275 276 278 279
264 266 267 269 271 273 273 272 273 274 273 273 273 273 272 273 273 273 272 273 273 273 272 271 272 272 270 270 269 268 267 266 266 265 265 266 268 269 271 274 275 276 277
263 265 266 267 269 270 271 272 272 272 272 273 273 274 274 275 275 273 271 272 273 273 272 271 270 270 269 269 269 269 268 266 265 265 265 267 269 270 271 272 273 273 275
264 264 265 267 268 269 270 271 272 272 273 273 275 276 276 276 276 273 271 271 272 272 272 271 270 271 271 271 270 269 267 266 265 266 267 268 269 270 271 272 273 274 274
263 265 265 266 267 269 270 271 271 271 272 273 274 275 276 276 275 273 271 270 270 271 270 270 271 272 273 272 271 268 266 265 266 267 268 268 269 271 271 272 273 273 274
265 266 266 266 266 268 270 271 272 271 271 272 273 274 275 274 273 273 273 272 271 272 271 270 271 272 272 273 271 270 267 266 267 268 269 269 269 270 270 270 271 272 275
265 266 268 268 267 267 268 269 269 269 270 271 274 274 274 273 272 273 274 274 272 271 271 271 271 272 272 271 270 268 266 266 267 268 270 270 269 269 270 270 270 271 274
262 263 265 267 267 266 267 269 268 268 269 272 274 274 274 274 272 272 272 272 273 272 272 272 272 272 272 272 270 268 268 268 268 269 270 271 269 269 270 270 270 272 274
262 262 262 264 267 267 268 267 266 268 270 272 273 273 274 273 272 271 271 272 272 272 272 272 273 275 272 271 271 268 268 269 270 270 270 270 270 270 271 270 269 271 273
Height
5871 5871 5871 5871 5870 5869 5869 5868 5867 5866 5865 5864 5863 5862 5861 5860 5859 5858 5857 5856 5855 5855 5854 5854 5853 5853 5854 5854 5854 5854 5854 5854 5854 5853 5853 5853 5853 5853 5852 5852 5852 5852 5852
5867 5867 5867 5867 5867 5866 5866 5866 5865 5864 5862 5861 5861 5860 5858 5857 5856 5855 5854 5853 5852 5851 5851 5851 5850 5851 5851 5851 5851 5851 5851 5851 5851 5850 5850 5850 5850 5849 5849 5849 5849 5849 5849
5863 5863 5863 5863 5863 5862 5862 5862 5861 5860 5859 5858 5857 5857 5855 5854 5854 5853 5851 5850 5849 5848 5848 5847 5848 5848 5848 5848 5848 5848 5848 5848 5848 5847 5847 5847 5846 5846 5846 5845 5845 5845 5845
5859 5859 5860 5860 5859 5859 5859 5858 5857 5856 5855 5854 5854 5853 5852 5851 5850 5849 5848 5847 5846 5845 5844 5844 5844 5844 5844 5844 5845 5845 5845 5845 5844 5844 5843 5843 5843 5843 5842 5842 5842 5841 5841
5854 5855 5856 5856 5856 5855 5854 5854 5854 5853 5852 5851 5850 5849 5848 5847 5846 5845 5844 5843 5842 5841 5841 5841 5841 5841 5841 5841 5841 5841 5841 5841 5841 5840 5840 5839 5839 5839 5838 5838 5838 5837 5837
5849 5850 5852 5852 5852 5851 5851 5850 5850 5849 5848 5847 5846 5846 5845 5843 5842 5841 5840 5839 5838 5838 5837 5837 5837 5837 5837 5837 5837 5837 5837 5836 5836 5836 5835 5835 5834 5834 5834 5834 5833 5833 5833
5844 5845 5846 5846 5846 5846 5846 5846 5846 5845 5843 5842 5842 5841 5840 5839 5838 5837 5836 5835 5834 5834 5833 5833 5833 5833 5833 5833 5833 5832 5832 5832 5831 5831 5831 5830 5830 5829 5829 5829 5829 5828 5828
5840 5840 5841 5841 5841 5841 5841 5841 5840 5840 5839 5838 5837 5836 5835 5834 5833 5832 5832 5831 5830 5829 5829 5829 5828 5828 5828 5828 5828 5828 5827 5827 5827 5826 5826 5825 5825 5824 5824 5824 5824 5823 5823
5833 5834 5835 5835 5835 5835 5835 5835 5835 5834 5833 5833 5832 5831 5830 5829 5828 5827 5827 5826 5825 5825 5825 5824 5824 5823 5823 5823 5823 5823 5822 5822 5822 5821 5821 5820 5819 5819 5819 5818 5818 5818 5818
5827 5828 5828 5828 5829 5829 5829 5829 5829 5828 5827 5827 5826 5825 5824 5823 5822 5822 5822 5821 5820 5820 5820 5819 5819 5819 5818 5818 5817 5817 5817 5816 5816 5815 5815 5814 5814 5813 5812 5812 5812 5811 5811
5820 5821 5821 5822 5822 5822 5822 5822 5822 5821 5821 5821 5820 5820 5819 5818 5817 5816 5816 5816 5815 5815 5815 5814 5814 5813 5813 5812 5811 5811 5811 5810 5810 5810 5809 5808 5807 5807 5807 5806 5805 5805 5805
5813 5815 5815 5815 5815 5816 5816 5815 5815 5815 5815 5814 5813 5813 5813 5811 5811 5811 5810 5810 5809 5809 5809 5808 5808 5807 5807 5806 5806 5805 5805 5804 5804 5803 5802 5802 5801 5801 5801 5800 5799 5799 5798
5806 5807 5808 5808 5808 5808 5808 5808 5808 5808 5808 5807 5807 5806 5806 5805 5805 5804 5804 5804 5803 5803 5802 5802 5801 5801 5800 5800 5799 5799 5799 5798 5798 5797 5797 5796 5795 5795 5794 5794 5793 5793 5792
5799 5799 5800 5800 5801 5801 5801 5801 5800 5800 5800 5800 5800 5799 5799 5798 5798 5797 5797 5797 5796 5795 5795 5794 5794 5794 5793 5793 5792 5792 5792 5791 5791 5790 5790 5789 5789 5788 5788 5787 5787 5786 5785
5791 5792 5793 5793 5793 5793 5794 5793 5793 5793 5792 5792 5792 5792 5791 5791 5790 5790 5789 5789 5788 5788 5787 5787 5786 5786 5786 5785 5784 5784 5784 5784 5784 5783 5783 5782 5782 5781 5781 5780 5780 5779 5778
5784 5785 5785 5786 5786 5786 5785 5785 5785 5785 5784 5784 5784 5783 5783 5782 5782 5782 5781 5781 5780 5780 5779 5778 5778 5778 5777 5777 5776 5776 5776 5776 5776 5776 5775 5775 5774 5774 5774 5773 5772 5772 5771
5776 5776 5777 5777 5778 5778 5777 5778 5777 5777 5776 5775 5775 5775 5774 5774 5774 5774 5773 5772 5772 5771 5771 5770 5769 5769 5768 5768 5768 5768 5768 5768 5768 5768 5767 5767 5766 5766 5766 5765 5764 5764 5763
5769 5769 5769 5769 5769 5769 5769 5769 5769 5769 5768 5767 5767 5766 5766 5765 5765 5765 5765 5764 5763 5763 5762 5761 5761 5760 5760 5760 5760 5759 5759 5759 5759 5759 5759 5759 5758 5758 5758 5757 5757 5756 5755
5761 5761 5761 5761 5761 5762 5761 5761 5761 5761 5760 5759 5758 5758 5757 5757 5757 5756 5756 5755 5755 5754 5753 5753 5752 5752 5752 5751 5751 5751 5751 5751 5751 5751 5751 5750 5750 5750 5750 5749 5749 5748 5747
5752 5753 5753 5753 5753 5753 5753 5753 5753 5752 5752 5751 5750 5750 5749 5748 5748 5747 5747 5746 5746 5745 5745 5744 5744 5744 5743 5743 5743 5743 5742 5742 5742 5742 5742 5742 5742 5742 5741 5741 5740 5740 5739
5744 5744 5744 5744 5744 5745 5745 5745 5744 5744 5744 5743 5742 5742 5741 5740 5739 5739 5738 5738 5737 5737 5736 5736 5736 5735 5735 5734 5734 5733 5733 5733 5733 5733 5733 5733 5733 5733 5732 5732 5732 5731 5730
5735 5735 5735 5736 5736 5736 5736 5736 5736 5736 5735 5735 5734 5733 5732 5731 5731 5730 5730 5729 5729 5728 5728 5728 5727 5726 5726 5726 5725 5724 5724 5724 5724 5724 5724 5725 5724 5724 5724 5723 5723 5722 5721
5727 5727 5727 5727 5728 5728 5728 5728 5727 5727 5727 5726 5726 5725 5724 5723 5723 5722 5722 5721 5721 5720 5719 5719 5719 5718 5718 5717 5716 5716 5715 5715 5715 5715 5716 5716 5716 5715 5715 5715 5714 5713 5712
5717 5718 5718 5718 5719 5719 5719 5719 5719 5719 5718 5718 5717 5717 5716 5715 5714 5714 5713 5713 5713 5712 5712 5711 5710 5710 5709 5708 5707 5707 5707 5707 5707 5707 5707 5707 5707 5707 5706 5706 5705 5705 5704
5708 5709 5709 5710 5710 5710 5710 5710 5710 5710 5710 5710 5709 5709 5708 5707 5706 5706 5706 5705 5705 5705 5704 5703 5702 5701 5701 5700 5699 5699 5699 5699 5699 5698 5698 5698 5698 5698 5698 5697 5697 5696 5696
5699 5700 5700 5701 5701 5701 5702 5702 5702 5702 5702 5701 5701 5700 5700 5699 5698 5698 5698 5697 5698 5697 5696 5696 5695 5694 5693 5692 5692 5691 5691 5691 5691 5691 5690 5690 5690 5689 5689 5688 5688 5688 5687